IRIDIUM 133

Last updated on Fri Sep 11 2026 00:03:06 GMT+0000 (Coordinated Universal Time)

1 42955U 17061A 26253.56776166 .00000117 00000+0 34607-4 0 9994 2 42955 86.4029 349.5895 0002196 93.6607 266.4840 14.34217742467011
UTC large
Height (km)
Speed (km/s)
/
Latitude / Longitude
Inclination (degrees)
Orbital Period (minutes)
Azimuth
Elevation
Range (km)
Doppler Factor

Next 0 passes for location: London (51.5072 / 0.1276)

No passes found over London.
IRIDIUM 133